Torna al catalogo

FENGYUN 2A

AttivoMeteoMEO
NORAD 24834·PAYLOAD·🇨🇳 China

Lanciato Jun 10, 1997 da Xichang Satellite Launch Center

Loading…

Prossimi Passaggi (prossime 24 ore)

TLE

AggiornatoSource: Space-Track

Epoca: Sep 14, 2026, 15:06 UTC

1 24834U 97029A   26257.62931603 -.00000270  00000-0  00000-0 0  9990
2 24834  15.6977   5.4412 0105113 240.2269 123.8683  0.96051918104263

Traccia FENGYUN 2A in tempo reale con AllMySat

Download on the App Store